Temp
-5 -5 -5 -5 -5 -5 -5 -5 -5 -5 -5 -5 -5 -5 -5 -5 -5 -5 -5 -5 -5 -5 -6 -6 -6 -6 -7 -7 -7 -7 -7 -7 -7 -7 -6 -5 -5 -5 -5 -5 -6 -5 -5 -5 -5
-5 -5 -5 -5 -5 -5 -5 -5 -5 -5 -5 -5 -5 -5 -5 -5 -5 -5 -5 -6 -6 -6 -6 -6 -6 -6 -7 -8 -7 -7 -7 -7 -7 -7 -6 -6 -5 -5 -5 -6 -6 -5 -5 -5 -6
-5 -5 -5 -5 -5 -5 -5 -5 -5 -5 -5 -5 -5 -5 -5 -5 -5 -5 -5 -6 -6 -6 -6 -7 -7 -6 -6 -8 -7 -7 -7 -8 -7 -7 -6 -5 -5 -5 -6 -6 -6 -5 -5 -6 -6
-5 -5 -5 -5 -5 -5 -5 -5 -5 -5 -5 -5 -5 -6 -6 -6 -6 -6 -6 -6 -6 -6 -6 -7 -7 -7 -7 -8 -7 -7 -7 -7 -7 -7 -7 -6 -6 -6 -5 -6 -6 -5 -6 -6 -6
-5 -5 -5 -5 -5 -5 -6 -6 -5 -5 -5 -6 -6 -6 -6 -6 -6 -6 -6 -6 -6 -6 -6 -7 -7 -7 -7 -8 -7 -7 -7 -7 -8 -8 -7 -7 -6 -7 -6 -5 -5 -5 -6 -6 -6
-6 -6 -5 -5 -5 -5 -6 -6 -6 -5 -6 -6 -6 -6 -6 -6 -6 -6 -6 -6 -6 -6 -6 -6 -7 -7 -7 -7 -7 -8 -8 -9 -8 -8 -8 -7 -8 -7 -6 -6 -6 -5 -6 -6 -6
-6 -6 -5 -6 -5 -5 -5 -5 -5 -5 -6 -6 -6 -6 -6 -6 -6 -6 -6 -6 -6 -6 -6 -6 -7 -7 -7 -8 -7 -8 -8 -8 -8 -8 -8 -8 -7 -7 -5 -5 -6 -6 -5 -6 -6
-6 -6 -6 -6 -6 -5 -5 -5 -5 -5 -6 -6 -6 -6 -6 -6 -6 -6 -6 -6 -6 -6 -6 -6 -7 -7 -8 -8 -8 -9 -9 -8 -8 -8 -7 -8 -8 -8 -6 -5 -6 -7 -6 -6 -6
-6 -6 -6 -6 -6 -6 -5 -5 -5 -6 -6 -6 -6 -6 -6 -6 -6 -6 -6 -6 -6 -6 -6 -6 -7 -7 -8 -9 -9 -10 -9 -8 -8 -7 -7 -8 -8 -8 -8 -8 -7 -6 -7 -7 -7
-6 -6 -6 -6 -6 -6 -6 -5 -5 -6 -6 -6 -6 -6 -6 -6 -5 -6 -6 -6 -6 -6 -6 -6 -7 -8 -8 -9 -9 -9 -9 -9 -7 -7 -7 -8 -8 -8 -8 -8 -7 -6 -6 -8 -7
-6 -6 -6 -6 -6 -5 -5 -5 -5 -5 -5 -6 -6 -6 -6 -6 -6 -6 -6 -6 -6 -6 -6 -6 -7 -8 -8 -9 -9 -9 -9 -8 -7 -7 -7 -8 -8 -8 -8 -8 -8 -7 -7 -7 -6
-7 -6 -6 -5 -5 -5 -5 -5 -5 -6 -6 -5 -5 -5 -6 -6 -6 -6 -6 -6 -6 -6 -6 -6 -7 -8 -9 -9 -9 -9 -8 -8 -7 -7 -7 -8 -8 -8 -8 -8 -7 -7 -7 -7 -6
-7 -6 -6 -5 -5 -5 -6 -6 -5 -5 -6 -6 -6 -6 -6 -5 -5 -6 -6 -6 -6 -6 -6 -6 -6 -7 -8 -8 -8 -8 -9 -9 -8 -9 -9 -9 -8 -8 -7 -7 -7 -7 -7 -7 -7
-7 -6 -6 -5 -5 -5 -6 -5 -6 -6 -6 -6 -6 -6 -6 -6 -6 -6 -6 -6 -6 -6 -6 -6 -7 -7 -7 -7 -7 -9 -9 -9 -9 -9 -9 -8 -8 -7 -7 -7 -7 -7 -7 -7 -8
-7 -7 -6 -5 -5 -6 -6 -6 -6 -6 -6 -6 -6 -6 -6 -6 -6 -6 -6 -6 -6 -6 -6 -7 -8 -8 -7 -7 -7 -8 -9 -9 -9 -9 -8 -8 -8 -8 -7 -7 -7 -7 -7 -7 -8
-7 -7 -6 -6 -6 -6 -7 -6 -6 -6 -6 -6 -6 -6 -6 -7 -7 -6 -6 -6 -6 -6 -7 -8 -8 -8 -8 -8 -7 -7 -8 -8 -8 -8 -9 -8 -8 -8 -7 -6 -6 -6 -7 -7 -7
-7 -7 -6 -6 -7 -7 -7 -7 -7 -7 -7 -7 -6 -6 -7 -7 -7 -7 -7 -7 -7 -8 -8 -8 -8 -7 -8 -9 -8 -8 -8 -8 -8 -8 -8 -8 -7 -7 -7 -7 -7 -7 -7 -7 -7
-8 -7 -7 -7 -7 -8 -8 -7 -7 -6 -6 -6 -6 -7 -7 -7 -8 -8 -7 -8 -8 -8 -9 -9 -9 -9 -9 -9 -9 -8 -8 -8 -8 -9 -8 -8 -8 -8 -7 -7 -7 -7 -7 -7 -7
-8 -8 -8 -8 -8 -8 -8 -8 -8 -7 -6 -6 -7 -7 -7 -6 -7 -8 -8 -8 -8 -8 -8 -9 -9 -9 -9 -9 -9 -9 -9 -9 -9 -8 -8 -9 -9 -9 -9 -8 -7 -7 -7 -7 -7
-9 -9 -8 -8 -8 -8 -9 -9 -9 -8 -7 -7 -7 -7 -7 -7 -7 -7 -8 -7 -7 -7 -7 -8 -8 -9 -10 -9 -8 -8 -9 -9 -10 -9 -8 -9 -9 -9 -9 -8 -7 -7 -7 -7 -8
-9 -9 -8 -8 -8 -9 -9 -9 -9 -9 -8 -8 -7 -7 -7 -7 -7 -7 -7 -7 -7 -7 -7 -7 -7 -8 -8 -9 -9 -9 -8 -8 -8 -9 -9 -8 -8 -9 -9 -8 -8 -7 -7 -7 -8
-9 -9 -9 -9 -9 -9 -10 -9 -8 -9 -9 -9 -8 -8 -7 -8 -9 -8 -8 -7 -8 -8 -8 -8 -8 -7 -8 -8 -9 -9 -9 -9 -10 -9 -9 -9 -8 -8 -7 -8 -8 -8 -7 -7 -8
-9 -9 -9 -9 -9 -9 -9 -9 -8 -8 -9 -8 -9 -8 -8 -8 -9 -9 -8 -8 -8 -8 -8 -8 -8 -8 -8 -8 -8 -8 -8 -9 -9 -10 -10 -9 -9 -9 -8 -8 -8 -8 -8 -8 -8
-9 -9 -9 -9 -9 -8 -8 -8 -8 -8 -8 -8 -8 -8 -8 -8 -8 -9 -9 -9 -9 -9 -8 -8 -8 -8 -8 -8 -9 -9 -9 -10 -10 -10 -9 -10 -9 -9 -9 -9 -9 -8 -8 -8 -10
-9 -9 -9 -9 -9 -9 -8 -9 -8 -8 -8 -8 -8 -8 -8 -7 -7 -8 -8 -9 -9 -9 -8 -8 -7 -7 -7 -8 -8 -8 -8 -9 -9 -9 -9 -9 -9 -9 -9 -10 -9 -9 -9 -8 -8
-10 -9 -9 -9 -9 -9 -9 -9 -8 -8 -8 -8 -8 -8 -7 -7 -8 -8 -7 -8 -8 -8 -8 -8 -7 -8 -8 -8 -7 -8 -8 -8 -8 -8 -8 -8 -9 -9 -9 -10 -10 -10 -9 -9 -8
-10 -10 -9 -9 -9 -9 -9 -9 -9 -9 -8 -8 -8 -8 -8 -7 -7 -8 -8 -8 -7 -7 -7 -7 -7 -7 -7 -8 -8 -8 -8 -8 -8 -8 -8 -9 -9 -8 -9 -10 -10 -10 -10 -9 -9
Height
5890 5889 5888 5887 5887 5887 5886 5886 5886 5886 5887 5887 5887 5888 5888 5888 5888 5889 5889 5890 5890 5890 5889 5889 5889 5890 5889 5888 5888 5888 5889 5889 5888 5886 5885 5884 5885 5885 5884 5883 5885 5886 5885 5885 5885
5890 5888 5887 5886 5886 5886 5885 5886 5886 5886 5886 5886 5887 5887 5887 5887 5887 5888 5889 5889 5890 5890 5889 5889 5889 5889 5889 5889 5889 5888 5888 5888 5887 5886 5885 5883 5882 5883 5882 5883 5885 5887 5885 5884 5884
5888 5887 5885 5884 5884 5884 5884 5884 5885 5885 5886 5886 5886 5886 5886 5886 5887 5886 5887 5888 5888 5890 5889 5889 5889 5889 5888 5889 5889 5888 5887 5886 5885 5885 5884 5882 5881 5882 5881 5881 5882 5883 5882 5881 5882
5887 5885 5883 5882 5881 5881 5881 5882 5883 5883 5884 5884 5884 5884 5885 5885 5887 5885 5885 5887 5887 5888 5889 5887 5888 5886 5887 5888 5888 5887 5885 5884 5883 5882 5881 5881 5880 5879 5879 5879 5879 5880 5878 5878 5878
5884 5883 5881 5880 5879 5879 5879 5880 5881 5882 5882 5883 5883 5883 5883 5884 5884 5884 5884 5885 5886 5887 5887 5886 5886 5885 5886 5887 5887 5886 5885 5885 5883 5882 5882 5881 5880 5880 5878 5877 5876 5876 5876 5877 5876
5882 5881 5879 5878 5878 5877 5877 5877 5879 5880 5881 5882 5882 5882 5882 5882 5883 5883 5883 5884 5884 5886 5885 5886 5886 5885 5886 5887 5887 5886 5885 5884 5883 5884 5883 5881 5879 5878 5877 5875 5875 5875 5874 5874 5874
5881 5879 5878 5877 5877 5877 5876 5877 5878 5879 5880 5881 5881 5881 5881 5881 5881 5882 5883 5883 5884 5885 5884 5883 5884 5884 5885 5887 5887 5885 5886 5885 5884 5882 5881 5881 5879 5875 5873 5873 5873 5874 5874 5871 5871
5880 5878 5877 5876 5876 5876 5876 5877 5878 5879 5880 5880 5881 5881 5880 5880 5880 5881 5882 5882 5882 5883 5883 5883 5883 5885 5885 5886 5885 5886 5886 5886 5885 5883 5881 5880 5878 5873 5870 5867 5871 5873 5877 5875 5871
5879 5877 5876 5875 5875 5875 5876 5877 5878 5878 5879 5880 5880 5881 5880 5880 5881 5881 5882 5882 5882 5882 5882 5882 5883 5883 5885 5885 5884 5884 5884 5884 5885 5883 5880 5877 5876 5873 5869 5866 5866 5868 5872 5873 5874
5878 5876 5875 5874 5874 5875 5876 5876 5877 5877 5878 5879 5879 5882 5880 5880 5880 5881 5881 5881 5881 5881 5882 5882 5882 5881 5884 5884 5884 5884 5883 5882 5883 5882 5880 5877 5875 5872 5868 5865 5865 5865 5867 5870 5874
5876 5875 5874 5873 5873 5874 5876 5876 5878 5878 5878 5878 5878 5879 5880 5879 5879 5880 5881 5881 5881 5881 5882 5882 5881 5883 5883 5883 5883 5883 5881 5881 5881 5880 5879 5876 5873 5872 5869 5865 5864 5865 5867 5868 5871
5874 5873 5872 5872 5872 5873 5875 5875 5876 5877 5877 5877 5877 5877 5878 5879 5879 5879 5880 5881 5880 5881 5881 5882 5882 5882 5882 5882 5883 5882 5881 5880 5879 5878 5878 5874 5873 5872 5870 5866 5863 5863 5866 5865 5867
5872 5871 5870 5870 5870 5872 5874 5874 5875 5875 5876 5877 5877 5877 5877 5878 5878 5878 5879 5879 5880 5880 5880 5881 5881 5881 5881 5881 5881 5880 5879 5878 5877 5876 5876 5874 5873 5872 5871 5868 5866 5864 5863 5867 5867
5869 5868 5868 5868 5870 5870 5873 5872 5873 5874 5874 5877 5877 5877 5877 5877 5878 5878 5878 5880 5880 5881 5880 5881 5881 5880 5881 5881 5880 5878 5878 5877 5876 5877 5876 5876 5875 5874 5872 5870 5869 5868 5866 5866 5867
5866 5866 5865 5866 5867 5868 5871 5872 5873 5873 5874 5877 5877 5877 5877 5878 5879 5878 5879 5878 5879 5880 5880 5881 5881 5882 5882 5881 5879 5878 5876 5876 5877 5878 5878 5877 5876 5875 5874 5872 5870 5869 5868 5867 5868
5862 5862 5863 5864 5864 5866 5867 5869 5871 5874 5873 5874 5875 5876 5878 5878 5878 5878 5879 5879 5879 5879 5879 5881 5882 5883 5882 5880 5878 5877 5876 5877 5878 5879 5879 5879 5877 5876 5874 5871 5870 5869 5869 5869 5869
5858 5858 5859 5860 5862 5864 5865 5866 5869 5870 5872 5873 5874 5875 5877 5877 5877 5878 5878 5878 5879 5879 5880 5881 5882 5882 5881 5880 5879 5877 5877 5878 5880 5880 5880 5879 5879 5878 5876 5873 5871 5871 5870 5870 5870
5854 5854 5855 5857 5859 5861 5862 5864 5866 5868 5870 5871 5871 5873 5874 5875 5876 5877 5877 5878 5879 5879 5879 5881 5881 5881 5880 5880 5880 5878 5878 5878 5879 5879 5878 5878 5878 5877 5877 5875 5873 5871 5871 5869 5870
5849 5850 5852 5854 5857 5859 5860 5860 5862 5866 5868 5870 5869 5870 5871 5873 5875 5875 5876 5876 5876 5877 5879 5879 5879 5880 5880 5880 5880 5878 5877 5878 5877 5877 5876 5876 5876 5875 5875 5874 5873 5871 5870 5869 5868
5845 5846 5848 5851 5854 5856 5857 5858 5859 5861 5864 5866 5867 5869 5869 5872 5875 5875 5874 5873 5873 5874 5874 5876 5877 5876 5877 5878 5879 5878 5877 5876 5875 5873 5873 5873 5872 5872 5872 5872 5872 5871 5869 5869 5869
5840 5843 5845 5847 5850 5852 5853 5854 5856 5857 5859 5861 5863 5865 5867 5868 5869 5869 5870 5871 5872 5873 5873 5874 5876 5875 5874 5875 5875 5875 5874 5873 5872 5871 5869 5870 5871 5870 5871 5869 5868 5869 5868 5869 5869
5837 5840 5842 5844 5847 5848 5848 5849 5852 5856 5858 5859 5860 5862 5864 5866 5866 5865 5866 5866 5867 5867 5867 5869 5869 5872 5874 5873 5872 5870 5869 5867 5866 5866 5865 5863 5867 5868 5866 5866 5865 5865 5866 5865 5865
5835 5838 5839 5841 5842 5843 5846 5846 5850 5853 5856 5857 5859 5860 5861 5863 5864 5864 5864 5864 5864 5865 5865 5866 5865 5864 5866 5868 5867 5868 5865 5864 5863 5860 5859 5858 5857 5858 5862 5863 5860 5860 5860 5862 5863
5833 5834 5835 5837 5840 5842 5843 5844 5848 5850 5853 5856 5858 5858 5857 5859 5860 5860 5861 5860 5860 5860 5860 5860 5859 5860 5860 5861 5862 5861 5860 5859 5857 5855 5852 5852 5849 5852 5853 5855 5856 5856 5856 5855 5858
5829 5830 5831 5833 5836 5838 5841 5844 5845 5847 5849 5850 5852 5852 5852 5853 5853 5854 5855 5855 5853 5854 5852 5852 5852 5853 5853 5852 5851 5851 5851 5850 5847 5845 5843 5843 5842 5843 5845 5846 5846 5849 5851 5850 5849
5826 5827 5828 5831 5833 5835 5838 5841 5842 5843 5845 5846 5847 5848 5849 5849 5850 5850 5851 5850 5850 5848 5845 5845 5845 5845 5847 5844 5843 5842 5840 5838 5838 5836 5834 5831 5832 5833 5835 5836 5837 5839 5839 5840 5841
5823 5823 5825 5829 5830 5832 5835 5837 5839 5838 5839 5840 5843 5844 5843 5844 5845 5845 5845 5844 5843 5841 5839 5840 5838 5838 5837 5837 5834 5833 5831 5829 5826 5825 5825 5821 5822 5821 5823 5825 5828 5828 5829 5830 5831
Wind_Speed
6 5 6 4 3 3 3 3 3 3 4 4 4 4 4 4 5 5 5 5 3 3 1 2 1 3 5 6 3 4 2 2 0 3 6 10 8 8 11 7 6 5 3 3 2
7 8 7 5 6 7 7 6 6 5 5 4 4 4 4 4 4 5 6 6 5 4 4 3 4 5 3 4 2 1 2 2 3 5 7 9 8 8 7 2 3 5 3 5 3
9 9 9 7 6 8 11 9 8 7 7 6 6 7 6 6 6 6 6 5 5 3 4 4 5 6 4 5 4 4 2 4 4 4 6 8 8 5 5 6 3 4 6 7 4
10 10 9 7 7 9 12 12 10 8 8 8 7 5 5 6 6 7 8 5 5 4 3 5 5 9 7 8 11 8 5 3 6 7 9 8 8 8 5 6 6 7 5 8 6
11 10 8 6 6 6 9 11 11 9 7 6 4 4 6 7 6 7 7 6 6 4 2 4 6 9 8 9 11 7 3 4 7 8 9 7 6 7 8 8 9 6 3 3 3
9 8 6 5 3 3 5 8 9 7 6 5 4 5 5 4 4 4 5 6 3 2 2 2 4 5 6 3 8 5 6 7 6 10 14 13 8 5 9 7 10 5 6 5 2
7 7 7 3 2 1 1 4 5 5 4 4 3 3 3 5 3 3 3 3 2 2 3 5 4 5 7 3 7 5 5 4 4 13 15 18 15 7 13 10 11 9 6 7 3
8 7 7 2 2 2 2 3 4 4 4 4 3 1 2 3 4 4 4 4 3 5 5 7 6 3 3 4 6 5 4 2 5 11 14 17 24 21 15 8 8 8 7 6 3
8 7 6 2 2 2 3 4 4 4 2 2 3 2 3 2 3 4 4 3 4 6 6 6 5 5 9 8 8 6 4 5 6 8 11 13 19 18 16 15 4 9 10 6 6
8 7 5 3 3 3 3 4 6 6 5 3 2 3 5 3 3 3 3 4 6 5 6 5 2 5 10 11 11 8 5 3 7 6 11 12 15 15 13 14 6 7 10 10 13
8 8 5 3 5 3 2 3 5 5 4 4 3 1 4 5 4 4 4 3 5 3 4 3 3 8 9 13 9 6 5 6 6 6 11 10 9 10 11 12 8 0 8 12 14
8 8 6 4 7 6 4 3 2 4 4 4 2 1 1 4 6 5 6 4 3 3 3 3 5 9 8 15 12 7 2 4 3 15 11 11 9 9 8 12 11 6 5 9 11
8 9 8 6 7 8 6 3 1 2 5 5 3 1 1 1 1 2 4 4 2 3 4 4 2 4 9 14 14 7 2 3 15 20 17 16 9 7 13 16 12 11 2 6 8
10 9 9 8 7 9 8 6 2 1 5 5 5 4 3 3 1 2 3 4 3 3 1 4 5 7 4 5 5 3 1 4 14 14 17 13 5 8 12 17 16 17 8 2 13
12 11 10 10 7 8 10 8 4 2 8 4 5 6 4 5 2 2 0 2 3 2 2 2 5 4 2 1 1 6 6 3 2 3 7 11 11 8 22 15 13 11 12 5 3
13 13 12 11 9 9 13 12 10 10 10 6 4 5 5 5 2 2 3 4 4 4 6 9 6 3 5 6 4 1 6 10 6 3 2 8 12 10 15 15 8 9 11 4 3
14 14 12 12 9 10 15 16 16 15 11 10 8 7 7 8 2 3 4 6 6 7 9 8 4 4 4 8 6 3 4 9 6 7 6 15 9 9 13 15 15 11 12 6 5
15 15 13 12 10 13 17 18 18 17 15 14 12 11 9 10 8 6 6 7 7 7 5 5 4 4 2 6 7 7 2 6 7 11 18 16 12 10 5 8 8 5 12 9 1
16 14 13 12 12 15 19 19 16 15 16 18 15 12 13 12 13 12 11 12 11 10 8 13 7 5 4 1 4 6 8 6 6 5 3 6 9 4 10 10 9 9 3 12 10
15 13 13 13 15 19 23 23 19 18 16 13 14 15 13 12 13 15 12 13 11 10 10 8 8 9 7 6 4 5 7 6 7 13 7 5 8 9 7 9 6 2 7 7 7
13 12 15 15 19 22 29 28 24 23 20 18 15 17 15 11 10 8 9 12 5 6 8 8 4 10 10 11 14 15 14 17 18 16 17 13 11 10 12 17 17 12 9 8 6
13 11 15 17 20 24 30 32 28 26 24 20 17 17 14 13 14 17 13 13 14 16 18 19 20 16 14 15 16 20 24 24 25 25 26 27 20 18 19 18 23 23 19 17 16
12 10 14 18 23 29 30 31 26 25 27 24 20 20 20 17 19 23 21 19 21 21 21 23 26 24 22 22 25 22 26 27 30 34 33 34 33 28 20 23 22 25 25 19 12
11 12 14 18 20 23 27 29 23 21 18 17 17 20 22 21 22 24 28 28 27 27 25 26 26 25 27 28 31 35 37 37 38 36 40 41 43 39 37 30 31 28 28 24 19
11 15 17 18 18 20 22 21 19 18 15 15 17 19 19 18 18 19 20 26 32 30 31 31 30 28 27 30 31 31 31 36 39 39 45 45 47 46 44 41 40 33 33 36 31
9 18 19 18 17 19 19 19 18 16 14 16 20 20 20 19 19 20 21 23 25 28 32 31 32 32 31 33 34 35 36 39 39 39 41 45 51 50 49 49 46 42 41 40 38
9 14 20 17 18 19 17 15 16 18 19 19 16 18 20 19 19 20 21 22 25 29 33 33 35 36 35 35 37 39 40 42 44 44 45 46 46 47 54 53 48 45 42 43 45
Wind_Direction
5 345 338 289 248 224 210 194 193 202 215 223 230 241 249 246 252 244 241 246 238 260 294 328 3 62 28 2 271 220 228 226 255 344 293 290 305 296 314 317 290 318 279 48 344
332 331 319 304 263 248 240 233 232 234 241 250 255 254 255 258 256 253 252 252 251 255 267 278 283 300 10 321 278 99 72 331 354 348 317 299 289 303 303 231 243 350 87 23 339
313 318 314 305 266 254 244 241 238 242 244 250 257 259 258 257 258 261 259 250 257 235 249 262 277 274 266 218 242 195 138 52 35 17 341 295 288 302 261 267 280 276 241 15 344
301 308 308 304 280 256 243 240 243 247 253 259 258 257 261 256 251 252 253 258 265 269 269 271 263 262 259 243 213 209 176 107 39 8 7 330 320 329 266 243 250 250 279 247 308
297 303 305 299 295 263 235 235 240 249 248 232 233 259 271 258 247 248 258 246 273 294 254 262 287 289 269 222 223 206 185 50 32 14 16 2 4 302 296 270 252 212 227 221 265
305 307 312 286 292 293 229 224 229 228 212 215 237 271 270 257 238 245 240 254 263 241 273 315 322 301 342 233 219 173 125 102 78 42 36 22 9 342 313 260 256 266 196 209 239
325 323 326 265 260 247 185 187 189 188 199 216 238 295 231 219 208 185 197 223 255 256 289 294 303 326 0 146 189 158 170 113 75 60 53 28 13 334 346 288 277 268 208 199 225
331 330 335 243 225 203 185 164 169 187 207 225 248 318 237 180 190 183 196 198 237 288 286 298 326 4 108 130 118 122 170 138 55 62 59 39 20 16 349 331 253 238 253 231 233
332 328 339 221 167 164 170 164 160 162 183 223 239 225 240 215 195 189 194 206 245 273 282 312 347 68 148 150 140 123 100 165 63 59 60 36 14 12 9 14 352 216 232 245 238
330 321 329 218 176 146 126 138 161 164 162 174 224 226 226 227 217 202 188 221 246 265 286 326 68 120 170 149 123 113 86 90 68 55 40 37 21 7 19 23 1 263 199 193 222
326 315 310 258 201 183 153 178 187 192 193 172 148 218 233 215 214 243 206 221 236 254 284 311 147 177 168 182 184 144 87 55 53 28 48 45 23 31 35 22 11 218 223 215 216
314 310 297 274 215 199 174 173 150 203 213 220 218 191 211 230 195 217 232 220 221 236 281 295 188 192 182 182 181 197 241 347 79 62 43 35 45 51 12 20 24 0 82 188 188
295 303 288 266 232 205 182 200 157 199 184 195 175 127 119 192 136 174 215 220 217 233 271 294 289 212 204 211 204 202 223 13 58 59 42 67 37 71 16 4 13 7 199 187 220
282 291 279 265 245 212 178 204 183 263 187 167 160 128 115 78 44 312 228 199 212 227 326 320 345 333 302 238 248 183 48 48 72 52 40 45 31 43 35 17 10 7 350 191 230
270 277 272 258 241 202 182 194 180 175 173 186 144 138 114 79 20 49 24 175 171 185 151 140 105 104 115 51 143 184 200 138 138 66 24 24 37 53 36 45 30 37 27 15 208
267 269 265 252 239 201 184 189 181 181 183 185 170 155 148 91 31 17 229 166 156 148 143 152 153 122 73 28 19 311 230 216 186 157 329 19 42 39 51 52 37 69 61 53 104
267 265 258 243 226 194 191 194 187 190 199 200 197 179 168 149 147 194 176 143 129 122 141 163 186 201 82 30 18 31 223 230 240 234 297 310 330 48 62 49 67 68 69 45 49
263 262 249 231 210 188 198 202 197 205 214 205 203 192 190 179 166 194 191 143 133 121 162 209 163 109 161 119 62 64 77 243 282 283 282 276 309 349 48 20 22 346 10 38 14
254 255 231 223 199 193 202 203 210 209 211 207 205 213 218 207 183 166 188 172 166 164 163 190 190 223 257 151 139 98 81 34 349 347 326 287 292 318 345 320 346 344 41 14 12
242 235 223 212 196 196 200 205 210 219 230 233 230 215 222 230 214 204 203 208 200 202 218 221 208 224 216 258 247 241 216 256 291 299 264 253 266 292 325 306 310 275 282 342 8
224 226 216 206 198 198 204 215 212 224 233 226 230 235 235 243 245 258 256 265 283 284 287 292 282 240 259 259 277 291 294 290 282 281 287 262 239 279 292 300 294 283 284 325 342
235 225 212 208 202 199 206 219 223 222 235 250 259 256 256 250 256 281 292 303 296 306 306 307 306 290 277 272 276 282 284 290 289 285 285 286 275 256 267 276 293 297 303 314 330
241 232 211 211 210 209 213 226 227 228 228 241 261 267 262 259 250 259 276 282 287 289 284 283 289 294 296 295 293 286 281 287 289 284 284 283 283 285 273 267 267 279 290 299 315
237 228 222 215 216 221 223 234 242 247 249 243 244 251 258 255 248 249 255 267 272 276 279 279 276 279 283 280 278 281 287 286 283 275 270 273 278 280 283 279 274 276 279 279 280
227 223 220 216 222 231 231 237 246 245 249 245 236 235 239 239 241 242 244 250 260 262 266 268 275 277 273 273 274 273 269 268 270 265 259 261 265 271 274 277 279 274 276 277 272
229 218 224 223 217 227 229 231 239 247 243 235 230 235 239 244 249 249 254 261 265 270 270 272 273 274 274 276 275 273 272 271 270 268 267 265 262 261 267 270 273 274 280 278 277
236 221 226 220 223 227 236 237 241 246 239 239 234 239 246 246 249 252 259 264 265 263 269 277 278 280 280 276 278 276 274 273 271 269 268 267 266 266 260 260 264 267 266 269 273